Date String (YYYY-MM-DD hh:mm:ss) UTC,Instrument flags,absolute air pressure of the measurement (hPa),sample flow rate (lpm),inlet stack bypass flow (lpm),air temperature of the measurement (°C),ambient temperature measured by the external sensor (°C),aerosol sample conditioner tube jacket temperature (°C),OPC LED temperature (°C),internal box temperature (°C),relative humidity of the measurement (%),span deviation,mass concentration of particles derived from Lorenz-Mie calculation of OPC scattering (μg/m³),mass concentration of particles derived from Lorenz-Mie calculation of OPC scattering (μg/m³),mass concentration of particles derived from Lorenz-Mie calculation of OPC scattering (μg/m³)
DateTimeUTC,F1_M11,P_M11,Q1_M11,Q2_M11,T1_M11,T2_M11,T3_M11,T4_M11,T5_M11,U1_M11,ZSPAN_M11,X2_M11,X0_M11,X1_M11
2023-11-22 00:00:00,SystemResetWarning,0838.9,5.00,000.00,026.4,025.3,000.0,034.7,027.7,8.4,0000.0,0002.07,0010.55,0001.17
2023-11-22 00:01:00,SystemResetWarning,0838.9,5.00,000.00,026.4,025.3,000.0,034.7,027.6,8.4,0000.0,0002.04,0010.97,0001.17
2023-11-22 00:02:00,SystemResetWarning,0838.9,5.00,000.00,026.4,025.3,000.0,034.7,027.6,8.4,0000.0,0002.13,0011.68,0001.17
2023-11-22 00:03:00,SystemResetWarning,0838.9,5.00,000.00,026.4,025.2,000.0,034.7,027.6,8.4,0000.0,0002.11,0012.05,0001.17
2023-11-22 00:04:00,SystemResetWarning,0838.9,5.00,000.00,026.3,025.2,000.0,034.7,027.6,8.4,0000.0,0002.14,0012.10,0001.16
2023-11-22 00:05:00,SystemResetWarning,0838.9,5.00,000.00,026.3,025.2,000.0,034.7,027.6,8.4,0000.0,0002.20,0012.29,0001.16
2023-11-22 00:06:00,SystemResetWarning,0838.9,5.00,000.00,026.3,025.2,000.0,034.7,027.5,8.4,0000.0,0002.17,0011.79,0001.14
2023-11-22 00:07:00,SystemResetWarning,0838.9,4.99,000.00,026.3,025.1,000.0,034.7,027.5,8.4,0000.0,0002.16,0012.11,0001.12
2023-11-22 00:08:00,SystemResetWarning,0838.9,5.00,000.00,026.3,025.1,000.0,034.7,027.5,8.4,0000.0,0002.18,0011.93,0001.11
2023-11-22 00:09:00,SystemResetWarning,0838.9,5.00,000.00,026.2,025.0,000.0,034.6,027.5,8.4,0000.0,0002.28,0011.80,0001.11
2023-11-22 00:10:00,SystemResetWarning,0838.8,5.01,000.00,026.2,025.0,000.0,034.6,027.4,8.4,0000.0,0002.35,0011.48,0001.11
2023-11-22 00:11:00,SystemResetWarning,0838.8,5.00,000.00,026.2,025.0,000.0,034.6,027.3,8.4,0000.0,0002.32,0011.59,0001.12
2023-11-22 00:12:00,SystemResetWarning,0838.8,5.01,000.00,026.2,025.0,000.0,034.6,027.4,8.4,0000.0,0002.41,0010.84,0001.12
2023-11-22 00:13:00,SystemResetWarning,0838.8,5.00,000.00,026.1,024.9,000.0,034.6,027.4,8.4,0000.0,0002.40,0010.25,0001.12
2023-11-22 00:14:00,SystemResetWarning,0838.8,5.00,000.00,026.1,025.0,000.0,034.6,027.3,8.4,0000.0,0002.46,0010.14,0001.12
2023-11-22 00:15:00,SystemResetWarning,0838.8,5.00,000.00,026.1,024.9,000.0,034.6,027.3,8.4,0000.0,0002.42,0010.01,0001.12
2023-11-22 00:16:00,SystemResetWarning,0838.8,5.00,000.00,026.1,024.9,000.0,034.6,027.3,8.5,0000.0,0002.39,0009.17,0001.12
2023-11-22 00:17:00,SystemResetWarning,0838.8,5.00,000.00,026.1,024.9,000.0,034.5,027.2,8.4,0000.0,0002.40,0008.73,0001.13
2023-11-22 00:18:00,SystemResetWarning,0838.8,5.00,000.00,026.1,024.9,000.0,034.5,027.2,8.4,0000.0,0002.37,0008.04,0001.14
2023-11-22 00:19:00,SystemResetWarning,0838.8,5.00,000.00,026.0,024.8,000.0,034.5,027.2,8.4,0000.0,0002.38,0008.10,0001.15
2023-11-22 00:20:00,SystemResetWarning,0838.8,5.00,000.00,026.0,024.8,000.0,034.5,027.3,8.4,0000.0,0002.31,0008.00,0001.16
2023-11-22 00:21:00,SystemResetWarning,0838.8,5.00,000.00,026.0,024.8,000.0,034.5,027.2,8.5,0000.0,0002.33,0007.91,0001.16
2023-11-22 00:22:00,SystemResetWarning,0838.8,5.00,000.00,026.0,024.8,000.0,034.5,027.1,8.5,0000.0,0002.34,0007.84,0001.16
2023-11-22 00:23:00,SystemResetWarning,0838.8,5.00,000.00,026.0,024.8,000.0,034.4,027.2,8.5,0000.0,0002.26,0007.52,0001.16
2023-11-22 00:24:00,SystemResetWarning,0838.8,5.00,000.00,025.9,024.7,000.0,034.4,027.1,8.6,0000.0,0002.20,0007.26,0001.16
2023-11-22 00:25:00,SystemResetWarning,0838.8,5.00,000.00,025.9,024.7,000.0,034.4,027.1,8.6,0000.0,0002.15,0007.20,0001.16
2023-11-22 00:26:00,SystemResetWarning,0838.8,5.00,000.00,025.9,024.7,000.0,034.4,027.1,8.6,0000.0,0002.14,0007.98,0001.16
2023-11-22 00:27:00,SystemResetWarning,0838.8,5.00,000.00,025.9,024.6,000.0,034.4,027.1,8.6,0000.0,0002.15,0008.22,0001.16
2023-11-22 00:28:00,SystemResetWarning,0838.8,5.00,000.00,025.9,024.6,000.0,034.3,027.1,8.6,0000.0,0002.15,0008.91,0001.16
2023-11-22 00:29:00,SystemResetWarning,0838.8,5.00,000.00,025.8,024.6,000.0,034.3,027.0,8.6,0000.0,0002.16,0008.89,0001.16
2023-11-22 00:30:00,SystemResetWarning,0838.8,5.00,000.00,025.8,024.6,000.0,034.3,027.0,8.6,0000.0,0002.19,0008.59,0001.15
2023-11-22 00:31:00,SystemResetWarning,0838.8,5.00,000.00,025.8,024.6,000.0,034.3,027.0,8.6,0000.0,0002.19,0008.66,0001.14
2023-11-22 00:32:00,SystemResetWarning,0838.8,5.00,000.00,025.8,024.6,000.0,034.3,026.9,8.6,0000.0,0002.14,0008.53,0001.13
2023-11-22 00:33:00,SystemResetWarning,0838.8,4.99,000.00,025.8,024.6,000.0,034.3,026.9,8.6,0000.0,0002.13,0008.45,0001.13
2023-11-22 00:34:00,SystemResetWarning,0838.8,5.00,000.00,025.8,024.6,000.0,034.2,026.9,8.6,0000.0,0002.12,0008.49,0001.14
2023-11-22 00:35:00,SystemResetWarning,0838.8,5.00,000.00,025.7,024.6,000.0,034.2,026.9,8.6,0000.0,0002.18,0008.70,0001.15
2023-11-22 00:36:00,SystemResetWarning,0838.8,5.01,000.00,025.7,024.6,000.0,034.2,026.9,8.6,0000.0,0002.26,0008.91,0001.16
2023-11-22 00:37:00,SystemResetWarning,0838.8,5.01,000.00,025.7,024.5,000.0,034.2,026.8,8.6,0000.0,0002.26,0008.06,0001.15
2023-11-22 00:38:00,SystemResetWarning,0838.8,5.01,000.00,025.7,024.5,000.0,034.2,026.8,8.6,0000.0,0002.25,0007.87,0001.16
2023-11-22 00:39:00,SystemResetWarning,0838.8,4.99,000.00,025.7,024.5,000.0,034.2,026.8,8.6,0000.0,0002.28,0007.37,0001.17
2023-11-22 00:40:00,SystemResetWarning,0838.8,5.00,000.00,025.6,024.5,000.0,034.1,026.8,8.6,0000.0,0002.28,0007.33,0001.18
2023-11-22 00:41:00,SystemResetWarning,0838.8,5.00,000.00,025.6,024.5,000.0,034.1,026.8,8.6,0000.0,0002.38,0007.75,0001.20
2023-11-22 00:42:00,SystemResetWarning,0838.8,4.99,000.00,025.6,024.5,000.0,034.1,026.8,8.7,0000.0,0002.49,0008.33,0001.22
2023-11-22 00:43:00,SystemResetWarning,0838.8,5.00,000.00,025.6,024.4,000.0,034.1,026.8,8.7,0000.0,0002.54,0009.04,0001.24
2023-11-22 00:44:00,SystemResetWarning,0838.8,5.00,000.00,025.6,024.4,000.0,034.1,026.8,8.7,0000.0,0002.58,0009.16,0001.25
2023-11-22 00:45:00,SystemResetWarning,0838.8,5.00,000.00,025.6,024.4,000.0,034.1,026.8,8.7,0000.0,0002.57,0009.04,0001.25
2023-11-22 00:46:00,SystemResetWarning,0838.8,5.00,000.00,025.6,024.4,000.0,034.1,026.7,8.7,0000.0,0002.58,0009.94,0001.26
2023-11-22 00:47:00,SystemResetWarning,0838.8,5.00,000.00,025.5,024.4,000.0,034.0,026.7,8.7,0000.0,0002.51,0009.77,0001.26
2023-11-22 00:48:00,SystemResetWarning,0838.8,5.00,000.00,025.5,024.4,000.0,034.0,026.7,8.7,0000.0,0002.52,0009.78,0001.30
2023-11-22 00:49:00,SystemResetWarning,0838.8,5.01,000.00,025.5,024.4,000.0,034.0,026.7,8.7,0000.0,0002.48,0009.69,0001.30
2023-11-22 00:50:00,SystemResetWarning,0838.8,5.00,000.00,025.5,024.4,000.0,034.0,026.7,8.7,0000.0,0002.40,0009.62,0001.30
2023-11-22 00:51:00,SystemResetWarning,0838.8,5.00,000.00,025.5,024.3,000.0,034.0,026.6,8.7,0000.0,0002.36,0009.69,0001.31
2023-11-22 00:52:00,SystemResetWarning,0838.8,5.00,000.00,025.5,024.3,000.0,033.9,026.7,8.7,0000.0,0002.24,0009.24,0001.31
2023-11-22 00:53:00,SystemResetWarning,0838.8,5.00,000.00,025.4,024.3,000.0,033.9,026.6,8.7,0000.0,0002.09,0008.46,0001.29
2023-11-22 00:54:00,SystemResetWarning,0838.8,5.00,000.00,025.4,024.3,000.0,033.9,026.6,8.7,0000.0,0001.99,0007.66,0001.28
2023-11-22 00:55:00,SystemResetWarning,0838.8,5.00,000.00,025.4,024.3,000.0,033.9,026.6,8.7,0000.0,0001.93,0007.73,0001.27
2023-11-22 00:56:00,SystemResetWarning,0838.8,4.99,000.00,025.4,024.3,000.0,033.9,026.6,8.7,0000.0,0001.96,0007.58,0001.27
2023-11-22 00:57:00,SystemResetWarning,0838.8,5.00,000.00,025.4,024.3,000.0,033.9,026.6,8.7,0000.0,0001.94,0007.27,0001.28
2023-11-22 00:58:00,SystemResetWarning,0838.8,5.00,000.00,025.4,024.3,000.0,033.9,026.5,8.7,0000.0,0002.04,0008.56,0001.29
2023-11-22 00:59:00,SystemResetWarning,0838.8,5.00,000.00,025.4,024.3,000.0,033.9,026.6,8.7,0000.0,0002.06,0008.75,0001.28
